Wind_Speed
22 22 22 23 23 23 21 19 18 18 20 20 18 17 16 14 15 17 22 17 20 13 22 23 21 16 16 13 7 4 1 2 3 6 3 3 4 5 8 16 5 11 13 34 42
23 24 24 24 24 23 21 20 19 19 19 22 20 17 16 16 16 19 12 16 16 21 24 32 25 20 9 9 6 4 2 6 4 3 4 7 6 10 7 11 6 13 22 40 46
25 25 24 24 23 23 21 19 19 21 23 25 24 16 14 14 13 1 4 7 25 24 23 27 25 21 6 7 8 7 5 1 4 9 13 7 5 7 13 3 10 32 41 45 45
28 27 24 24 23 22 20 19 20 23 29 23 19 12 11 8 1 2 2 1 30 29 25 28 31 16 6 6 15 4 13 10 5 9 4 3 10 7 17 5 13 26 50 54 49
28 28 26 25 23 21 20 20 21 24 29 17 16 14 11 5 7 9 8 2 34 33 31 30 35 14 6 8 9 11 4 4 17 12 7 6 11 5 12 3 13 33 42 42 46
29 28 27 28 28 21 20 20 22 23 24 18 19 19 8 3 2 6 7 3 33 36 32 32 22 20 13 6 8 8 16 12 12 13 8 7 6 10 8 14 28 42 40 38 43
31 32 30 30 30 23 19 19 21 22 17 20 21 10 6 6 4 7 6 4 29 36 35 33 6 22 6 2 12 14 4 5 6 6 5 12 3 6 22 23 37 37 36 34 38
33 33 34 34 33 26 20 19 19 19 11 19 16 14 3 9 6 4 7 5 17 34 26 31 20 19 3 3 2 6 3 2 2 6 5 12 5 3 28 32 32 35 35 33 39
32 33 33 33 32 24 21 23 21 8 10 13 15 8 5 8 13 11 10 3 9 27 25 11 19 3 6 2 4 4 4 6 4 7 3 5 3 11 24 28 31 33 34 33 34
32 33 33 31 27 21 23 20 16 7 20 7 17 6 11 19 16 5 6 10 14 20 16 6 9 2 2 4 7 6 4 5 5 5 8 6 0 13 22 26 33 34 34 35 36
34 34 32 27 18 19 21 9 9 3 14 4 11 3 16 24 17 11 7 15 14 17 7 7 4 18 22 12 2 4 5 6 6 6 6 11 6 15 23 21 24 31 35 37 39
33 34 32 22 11 15 18 14 16 12 10 12 2 10 18 21 6 23 10 9 6 4 7 3 14 11 5 5 6 6 2 4 4 3 8 7 13 14 20 28 36 35 35 35 32
34 35 31 20 3 16 19 18 21 9 2 6 4 13 18 15 3 15 17 1 4 5 8 7 6 11 9 6 10 11 7 4 2 3 6 2 7 9 14 13 22 25 31 34 39
31 31 26 16 2 14 15 19 20 2 4 5 6 9 16 10 3 7 16 3 3 10 7 9 8 11 13 14 9 11 12 14 5 1 4 6 4 7 11 18 19 27 31 33 36
28 27 21 10 7 11 16 19 12 5 2 2 4 7 12 8 9 16 14 4 4 4 6 6 8 10 12 20 14 13 7 10 8 4 3 4 0 7 12 12 18 25 33 35 39
26 22 14 7 10 16 16 20 5 5 5 2 3 5 7 8 7 13 10 11 1 5 2 8 6 7 16 9 14 3 1 4 3 4 10 13 9 6 7 13 16 23 34 37 39
27 22 6 10 19 16 17 7 4 3 3 3 2 4 3 5 6 7 4 8 5 6 7 6 5 5 5 7 8 12 9 2 3 4 15 9 9 12 6 11 17 23 36 41 42
28 22 5 16 14 15 14 4 3 1 2 2 3 1 4 5 2 7 2 3 7 4 2 4 4 6 1 10 8 11 12 6 8 6 14 6 8 6 19 13 28 28 38 35 34
27 13 4 15 16 13 7 4 3 1 4 4 4 3 2 3 2 4 2 2 1 4 3 4 6 5 5 1 3 6 16 11 4 3 1 9 4 8 5 11 14 24 22 30 37
26 4 14 16 15 6 4 3 4 1 5 3 3 1 2 2 1 2 2 2 4 2 0 2 5 3 6 5 8 8 6 7 4 7 5 4 6 8 9 9 9 8 20 28 36
17 3 16 20 7 6 3 3 3 3 7 1 1 1 2 3 2 3 2 3 3 2 2 2 4 7 5 6 10 7 8 5 7 7 7 2 6 7 11 14 14 11 26 32 36
12 3 19 24 8 4 2 5 6 3 5 3 2 3 4 5 3 3 5 2 6 1 2 2 2 6 9 7 3 3 4 4 8 12 7 3 7 5 10 9 14 20 30 34 39
12 6 12 17 4 3 6 4 4 3 3 4 3 4 1 4 2 4 3 4 5 3 3 2 2 5 7 1 5 3 2 6 5 3 15 14 7 6 6 6 17 18 21 33 37
7 4 7 12 7 2 5 4 5 9 1 3 3 4 4 3 2 3 3 5 7 4 5 1 3 7 6 2 4 5 8 6 4 3 5 15 10 7 9 8 9 18 23 21 27
7 2 3 4 3 4 2 3 4 5 5 6 3 3 4 1 5 3 3 2 2 1 3 2 5 5 15 16 10 11 15 13 5 11 5 4 11 9 12 11 7 11 12 17 20
4 4 4 4 6 5 1 2 6 4 3 4 4 6 7 4 6 7 5 3 5 2 3 1 4 7 14 14 15 14 16 14 15 17 13 16 10 4 7 6 9 8 13 15 23
6 2 2 5 2 2 2 3 6 9 8 10 10 7 9 12 14 15 22 17 7 8 8 6 3 4 5 4 5 8 15 8 7 13 5 6 2 5 4 9 10 13 14 16 20
Wind_Direction
10 7 3 0 358 357 356 357 357 353 345 342 331 321 310 297 286 274 262 256 215 191 182 176 168 168 172 186 189 180 73 247 232 183 230 223 162 107 151 139 153 173 159 164 163
8 5 1 358 356 356 354 351 352 351 347 340 336 328 317 306 294 281 293 247 202 196 190 190 176 163 174 191 198 169 187 225 216 178 189 138 128 140 126 134 71 118 152 158 164
6 2 358 355 353 352 350 346 344 341 336 330 320 317 318 314 312 134 6 225 189 183 193 192 178 159 162 171 204 179 217 232 246 223 158 135 134 168 140 196 178 149 155 162 166
11 6 358 352 348 348 346 340 336 336 336 342 341 317 312 307 313 260 13 248 181 186 181 172 165 165 168 192 197 222 235 253 313 192 173 181 153 171 174 197 198 180 167 167 169
4 5 6 353 345 344 344 331 333 335 337 340 0 356 314 274 256 282 268 346 180 186 183 174 167 165 187 194 163 229 243 241 245 272 272 224 195 196 197 202 160 167 165 169 170
0 360 0 356 351 345 342 331 332 332 336 337 334 334 280 241 248 328 272 242 186 185 187 185 186 179 191 198 192 225 239 269 282 273 254 207 210 181 148 160 152 162 169 174 175
355 357 357 354 351 347 343 332 333 330 338 338 336 347 267 284 181 10 354 192 196 189 190 194 207 185 172 90 244 250 336 328 236 227 241 198 212 207 158 163 153 160 170 176 181
353 351 355 352 351 349 348 338 332 331 339 342 353 356 37 33 94 62 22 266 203 196 194 197 198 192 209 307 351 175 100 336 278 179 205 160 244 130 161 155 159 165 174 183 187
352 349 354 351 351 349 347 343 331 351 340 358 0 19 41 13 331 332 348 227 201 197 195 208 206 236 240 72 5 358 188 202 303 199 142 161 244 156 164 159 165 172 178 188 191
348 348 353 354 355 354 343 346 344 18 354 14 4 344 356 340 331 339 5 180 171 183 193 190 183 160 35 150 205 189 175 209 193 219 185 193 198 155 174 171 173 178 184 192 197
348 347 348 353 359 6 357 1 11 11 353 335 332 337 337 1 34 52 48 143 155 147 165 185 167 208 207 206 310 175 187 187 220 210 152 208 180 182 183 184 184 182 188 198 203
347 344 348 355 22 25 22 49 25 337 309 343 34 353 358 356 349 31 30 162 155 163 136 131 227 227 187 187 212 256 230 225 282 234 174 213 220 186 184 194 189 188 190 199 203
350 344 345 350 21 22 28 21 359 342 308 309 33 14 3 347 30 358 7 315 170 181 185 181 232 165 187 176 199 231 216 226 188 352 221 164 258 169 203 200 203 206 202 197 195
349 344 345 355 48 10 13 355 343 278 58 285 348 21 358 356 75 353 6 337 233 198 173 230 232 192 187 211 178 224 219 242 267 30 221 170 256 228 182 201 200 204 204 203 201
349 344 345 359 359 357 339 339 331 167 349 41 2 8 16 42 323 352 2 13 315 262 152 213 181 181 211 217 182 232 163 209 233 216 327 261 189 254 178 204 207 206 209 207 204
348 346 352 2 355 341 339 339 137 52 234 12 48 352 24 14 10 329 8 25 5 307 254 214 221 196 222 203 202 170 62 137 120 153 243 225 209 262 184 211 208 211 213 211 208
344 342 342 5 348 338 343 349 49 151 347 13 324 17 83 351 352 15 30 36 40 19 8 337 224 165 233 202 208 181 147 265 199 206 233 214 214 235 208 216 204 204 211 213 213
343 332 248 2 344 337 345 53 190 63 25 359 348 4 91 15 2 353 40 34 32 76 23 341 219 161 63 190 196 200 181 171 193 212 229 181 216 239 222 223 214 215 212 211 213
346 3 48 340 328 323 343 56 178 82 278 300 330 83 46 358 33 35 26 134 31 23 82 11 270 325 244 1 199 193 209 180 105 204 164 204 254 307 193 216 215 222 209 206 207
348 17 11 344 336 270 85 213 156 56 318 352 195 137 158 310 46 342 217 14 134 72 168 142 295 259 304 299 209 206 176 184 203 205 220 244 205 208 205 220 215 206 203 206 206
355 2 350 354 13 56 102 287 306 334 357 326 240 238 174 168 191 234 234 141 96 320 86 115 170 292 340 209 206 190 216 236 181 202 207 182 238 209 202 204 215 209 206 206 204
2 27 352 2 48 38 38 306 309 334 350 321 308 211 183 167 211 243 219 120 123 177 125 175 267 264 251 264 3 341 240 254 209 217 225 134 249 233 203 218 220 207 217 224 221
355 336 9 21 61 353 318 300 273 321 319 2 320 34 27 181 214 228 200 130 134 153 182 160 206 295 299 93 65 83 50 24 321 277 209 212 237 258 189 230 245 237 229 222 227
1 9 22 53 62 53 345 303 310 322 32 7 283 64 28 2 245 255 222 192 174 182 206 119 255 229 245 35 17 311 312 6 16 310 271 221 210 197 253 229 255 245 249 245 240
22 50 23 337 351 331 309 311 303 335 357 328 327 131 114 288 324 278 273 221 112 221 90 125 253 265 268 275 277 267 279 293 251 243 218 225 205 221 220 228 216 250 270 273 251
35 15 350 300 298 305 320 289 317 310 332 290 249 309 331 245 224 238 209 196 196 131 159 287 271 307 288 250 242 264 266 261 245 249 244 261 266 336 31 55 24 1 313 288 274
36 358 307 293 294 303 311 297 290 294 254 255 299 301 280 244 241 263 262 253 220 171 182 181 246 280 263 291 4 289 219 200 97 22 285 193 262 332 39 63 28 5 352 323 288
Height
1516 1512 1509 1505 1502 1498 1495 1492 1489 1486 1483 1481 1478 1476 1474 1474 1473 1472 1470 1474 1477 1480 1483 1487 1491 1494 1498 1500 1502 1503 1508 1510 1499 1499 1490 1490 1491 1493 1497 1500 1505 1508 1508 1513 1519
1516 1512 1508 1504 1500 1497 1493 1490 1487 1485 1482 1478 1476 1474 1471 1469 1468 1466 1468 1468 1473 1477 1480 1482 1487 1493 1497 1499 1500 1501 1508 1498 1489 1488 1489 1489 1490 1494 1498 1502 1506 1506 1510 1516 1521
1516 1512 1508 1504 1500 1495 1492 1488 1485 1482 1480 1477 1472 1471 1469 1467 1465 1462 1462 1463 1468 1473 1479 1482 1488 1492 1496 1497 1498 1498 1500 1490 1487 1485 1488 1488 1490 1494 1497 1502 1502 1502 1509 1514 1521
1516 1511 1507 1503 1498 1494 1490 1487 1483 1480 1476 1473 1469 1467 1466 1466 1467 1461 1460 1461 1464 1472 1476 1481 1486 1490 1493 1493 1493 1496 1489 1490 1486 1486 1487 1489 1490 1492 1494 1496 1495 1501 1503 1509 1517
1516 1511 1507 1501 1497 1492 1489 1484 1482 1478 1474 1471 1469 1466 1464 1463 1461 1459 1459 1460 1463 1469 1473 1476 1480 1486 1489 1489 1490 1491 1487 1487 1486 1487 1489 1489 1489 1491 1493 1493 1495 1503 1511 1515 1518
1515 1510 1505 1499 1494 1490 1486 1482 1479 1475 1471 1468 1466 1464 1462 1463 1459 1459 1458 1460 1461 1465 1471 1475 1478 1482 1485 1486 1487 1483 1486 1487 1486 1487 1487 1488 1487 1489 1493 1492 1496 1502 1511 1517 1519
1513 1508 1503 1498 1492 1488 1484 1479 1476 1473 1470 1467 1462 1459 1458 1459 1458 1459 1458 1460 1462 1464 1469 1475 1479 1483 1484 1486 1484 1483 1486 1484 1483 1483 1485 1485 1490 1488 1490 1494 1497 1504 1512 1518 1521
1511 1505 1501 1495 1489 1484 1481 1477 1473 1470 1468 1465 1461 1457 1457 1459 1459 1460 1460 1461 1463 1467 1473 1477 1482 1484 1484 1484 1482 1485 1488 1494 1478 1477 1481 1483 1495 1487 1489 1492 1498 1504 1510 1517 1519
1510 1504 1499 1493 1487 1482 1479 1474 1470 1468 1467 1464 1462 1459 1460 1460 1460 1459 1459 1459 1463 1469 1474 1480 1483 1484 1484 1487 1494 1492 1499 1493 1484 1474 1477 1480 1486 1486 1491 1493 1498 1504 1509 1515 1520
1508 1502 1497 1492 1486 1482 1477 1473 1468 1468 1468 1465 1464 1464 1460 1462 1457 1457 1457 1457 1461 1468 1477 1479 1481 1484 1487 1492 1502 1498 1495 1488 1486 1475 1476 1481 1484 1487 1492 1494 1493 1499 1507 1511 1515
1505 1499 1495 1491 1487 1482 1478 1472 1472 1471 1470 1471 1472 1470 1465 1463 1458 1458 1458 1460 1461 1466 1475 1475 1483 1476 1470 1477 1479 1482 1485 1485 1476 1471 1477 1480 1483 1485 1490 1495 1496 1496 1501 1505 1508
1505 1498 1493 1489 1487 1483 1479 1478 1483 1484 1474 1470 1470 1469 1466 1463 1461 1459 1460 1461 1463 1467 1469 1478 1475 1470 1476 1480 1482 1483 1483 1484 1476 1468 1475 1477 1479 1480 1484 1482 1483 1488 1494 1501 1509
1502 1495 1490 1487 1486 1484 1481 1481 1482 1481 1480 1471 1470 1469 1467 1464 1463 1463 1461 1459 1460 1466 1468 1472 1468 1469 1474 1480 1486 1486 1489 1485 1480 1474 1470 1473 1480 1482 1481 1483 1488 1489 1490 1494 1497
1501 1494 1489 1486 1487 1484 1482 1481 1480 1480 1488 1476 1470 1471 1469 1462 1465 1465 1462 1461 1457 1461 1465 1467 1461 1465 1469 1474 1479 1492 1477 1479 1482 1485 1496 1471 1503 1475 1472 1476 1479 1481 1484 1487 1493
1499 1493 1488 1485 1486 1485 1485 1481 1477 1480 1497 1474 1473 1472 1471 1469 1471 1466 1463 1459 1460 1456 1458 1460 1458 1463 1469 1464 1469 1472 1473 1480 1482 1487 1487 1480 1491 1476 1464 1475 1471 1472 1474 1478 1484
1499 1493 1488 1486 1484 1484 1481 1478 1478 1490 1492 1476 1474 1474 1473 1471 1472 1469 1466 1463 1463 1461 1454 1452 1450 1453 1453 1458 1463 1463 1470 1477 1482 1492 1500 1479 1481 1475 1468 1456 1462 1465 1467 1470 1475
1495 1490 1487 1484 1483 1481 1479 1477 1489 1493 1477 1481 1479 1476 1477 1478 1476 1474 1475 1475 1482 1475 1475 1460 1448 1447 1450 1459 1458 1464 1478 1506 1512 1509 1483 1468 1481 1462 1447 1443 1445 1450 1455 1460 1466
1491 1485 1484 1483 1481 1479 1478 1479 1486 1481 1480 1477 1478 1478 1481 1480 1480 1478 1477 1483 1481 1483 1487 1486 1461 1445 1445 1449 1458 1460 1468 1494 1510 1500 1474 1471 1474 1454 1436 1435 1437 1441 1445 1453 1463
1487 1482 1483 1481 1479 1479 1479 1492 1489 1486 1484 1481 1479 1482 1483 1481 1480 1481 1482 1484 1485 1483 1488 1491 1473 1453 1448 1447 1448 1456 1461 1456 1477 1478 1485 1455 1453 1437 1430 1433 1433 1435 1443 1447 1453
1486 1482 1482 1479 1475 1475 1480 1487 1485 1483 1482 1480 1482 1481 1485 1485 1484 1484 1482 1482 1483 1483 1483 1486 1489 1458 1450 1444 1439 1447 1444 1464 1472 1482 1489 1465 1457 1447 1434 1433 1431 1432 1436 1439 1444
1485 1482 1482 1479 1475 1476 1490 1492 1486 1483 1481 1482 1480 1482 1483 1486 1486 1485 1482 1483 1483 1483 1482 1485 1488 1466 1455 1445 1438 1441 1447 1444 1445 1460 1466 1474 1450 1426 1423 1421 1423 1424 1426 1431 1436
1487 1487 1483 1479 1481 1491 1496 1494 1488 1483 1482 1481 1479 1479 1481 1484 1485 1483 1482 1480 1481 1481 1484 1485 1484 1480 1463 1441 1442 1448 1448 1444 1443 1453 1452 1460 1446 1413 1412 1414 1413 1415 1418 1421 1425
1492 1490 1488 1483 1497 1501 1497 1493 1489 1485 1483 1483 1483 1481 1480 1482 1485 1483 1479 1479 1479 1480 1482 1483 1482 1487 1453 1442 1442 1446 1452 1457 1453 1437 1438 1447 1448 1411 1412 1412 1410 1413 1416 1415 1417
1496 1496 1493 1493 1499 1500 1499 1495 1490 1485 1485 1483 1483 1482 1483 1483 1482 1482 1481 1478 1478 1478 1479 1481 1487 1481 1468 1456 1460 1455 1451 1456 1462 1464 1434 1425 1428 1416 1410 1413 1407 1404 1407 1414 1417
1500 1503 1503 1504 1501 1500 1501 1497 1493 1490 1486 1485 1482 1482 1486 1490 1485 1483 1480 1477 1477 1477 1480 1484 1488 1479 1467 1462 1462 1456 1451 1452 1460 1453 1454 1421 1422 1416 1408 1404 1406 1404 1405 1406 1410
1504 1505 1504 1502 1501 1500 1499 1496 1493 1491 1492 1487 1485 1483 1486 1486 1485 1484 1481 1478 1477 1480 1483 1485 1482 1473 1465 1455 1454 1447 1438 1439 1439 1436 1439 1432 1426 1411 1407 1403 1406 1407 1403 1403 1401
1505 1505 1504 1502 1499 1499 1497 1494 1491 1490 1487 1485 1483 1482 1479 1476 1476 1476 1475 1475 1474 1476 1481 1484 1482 1474 1464 1449 1442 1436 1422 1423 1430 1435 1428 1420 1412 1410 1412 1411 1410 1405 1402 1398 1395